Location: Winthrop
(48.4780°N, 120.1850°W)
Time: 02:07:58
(UTC-07:00)

Transit 2A - Pass Details

Date: 23 June 2024
Orbit: 591 x 960 km, 66.7° (Epoch: 23 July)

Event Time Altitude Azimuth Distance (km) Brightness Sun altitude
Rises 01:22:11 0° 320° (NW) 3,539 10.1 -18.0°
Reaches altitude 10° 01:24:49 10° 312° (NW) 2,632 9.3 -17.9°
Maximum altitude 01:30:29 39° 247° (WSW) 1,404 7.1 -17.8°
Enters shadow 01:33:00 28° 202° (SSW) 1,731 7.2 -17.8°
